Zurück zum Katalog

COSMOS 2499 DEB

AktivPO
NORAD 56566·DEBRIS·🇷🇺 Russia

Gestartet May 23, 2014 von Plesetsk Cosmodrome

Loading…

Nächste Überflüge (nächste 24 Stunden)

TLE

AktuellSource: Space-Track

Epoche: Sep 13, 2026, 21:18 UTC

1 56566U 14028AZ  26256.88760728  .00008325  00000-0  14293-1 0  9998
2 56566  82.2600 113.3393 0305638 314.8533  42.8127 13.27701027109636

Verfolge COSMOS 2499 DEB in Echtzeit mit AllMySat

Download on the App Store